Regional Weather Roundup
Issued by NWS

Home | Current Version | Previous Version | Graphics & Text | Print | Product List | Glossary On
Versions: 1 2 3 4 5 6 7 8 9 10 11 12 13 14 15 16 17 18 19 20 21 22 23 24 25 26 27 28 29 30 31 32 33 34 35 36 37 38 39 40 41 42 43 44 45 46 47 48 49 50
000
ASUS43 KLMK 250302
RWRKY
KENTUCKY REGIONAL WEATHER ROUNDUP
NATIONAL WEATHER SERVICE LOUISVILLE KY
1000 PM EST SAT JAN 24 2015

NOTE "FAIR" INDICATES FEW OR NO CLOUDS BELOW 12,000 FEET
WITH NO SIGNIFICANT WEATHER AND/OR OBSTRUCTIONS TO VISIBILITY.

KYZ001>023-026-027-061>063-070>075-250400-
WESTERN AND SOUTH CENTRAL KENTUCKY

CITY           SKY/WX    TMP DP  RH WIND       PRES   REMARKS
PADUCAH        PTCLDY    44  32  62 SW9       29.84S
HENDERSON      MOCLDY    39  30  70 SW10      29.82F WCI  32
OWENSBORO      CLEAR     35  30  82 S7        29.84F WCI  29
HOPKINSVILLE   CLEAR     37  28  71 S6        29.87S WCI  32
BOWLING GREEN  CLEAR     35  29  78 CALM      29.87F
GLASGOW        NOT AVBL
$$

KYZ024-025-028>034-038-045-046-053-250400-
NORTH CENTRAL KENTUCKY

CITY           SKY/WX    TMP DP  RH WIND       PRES   REMARKS
LOUISVILLE/SDF CLEAR     38  31  76 S5        29.83F WCI  34
LOUISVILLE/LOU CLEAR     37  31  78 S3        29.83F
FORT KNOX      CLEAR     33  29  85 S5        29.82F WCI  29
$$

KYZ035>037-039>044-047>052-055>060-089>105-250400-
NORTHEAST KENTUCKY

CITY           SKY/WX    TMP DP  RH WIND       PRES   REMARKS
LEXINGTON      CLEAR     32  28  85 S7        29.84S WCI  26
COVINGTON      MOCLDY    33  27  78 S6        29.79F WCI  28
FRANKFORT      CLEAR     33  29  85 SW7       29.83S WCI  27
$$

KYZ054-064>069-076>088-106>120-250400-
SOUTHEAST KENTUCKY

CITY           SKY/WX    TMP DP  RH WIND       PRES   REMARKS
JACKSON        CLEAR     33  30  88 VRB5      29.85S WCI  29
LONDON         CLEAR     32  26  78 CALM      29.88R
SOMERSET       NOT AVBL
MIDDLESBORO    NOT AVBL
MONTICELLO     CLEAR     34  30  85 SW5       29.91S WCI  30
$$




USA.gov is the U.S. government's official web portal to all federal, state and local government web resources and services.